Weather History for Cherry Point, NC

Change the Weather History Date:

Thursday, January 24, 2013

  Actual Average Record
Temperature  
Mean Temperature 35 °F -  
Max Temperature 43 °F 51 °F 75 °F (2002)
Min Temperature 27 °F 32 °F 12 °F (2014)
Degree Days  
Heating Degree Days 30    
Moisture  
Dew Point 17 °F    
Average Humidity 49    
Maximum Humidity 78    
Minimum Humidity 28    
Precipitation  
Precipitation 0.00 in - - ()
Sea Level Pressure  
Sea Level Pressure 30.25 in    
Wind  
Wind Speed 11 mph ()    
Max Wind Speed 25 mph    
Max Gust Speed 36 mph    
Visibility 9.9 miles    
Events      
Averages and records for this station are not official NWS values.
T = Trace of Precipitation, MM = Missing Value Source: Averaged Metar Reports

Daily Weather History Graph

Daily Weather History Graph

Search for Another Location

Airport:

Trip Planner

Search our weather history database for the weather conditions in past years. The results will help you decide how hot, cold, wet, or windy it might be!

Date:

Astronomy

Jan. 24, 2013 Rise Set
Actual Time 7:11 AM EST 5:28 PM EST
Civil Twilight 6:44 AM EST 5:55 PM EST
Nautical Twilight 6:13 AM EST 6:26 PM EST
Astronomical Twilight 5:43 AM EST 6:56 PM EST
Moon 3:30 PM EST (1/24) 5:05 AM EST (1/24)
Length of Visible Light 11h 11m
Length of Day
10h 17m
Waxing Gibbous, 94% of the Moon is Illuminated
Jan 24
Waxing Gibbous
Jan 26
Full
Feb 3
Last Quarter
Feb 10
New
Feb 17
First Quarter

Hourly Weather History & Observations

Time (EST) Temp. Windchill Dew Point Humidity Pressure Visibility Wind Dir Wind Speed Gust Speed Precip Events Conditions
12:54 AM 28.0 °F - 21.0 °F 75% 30.11 in 10.0 mi Calm Calm - N/A   Clear
1:54 AM 28.9 °F 25.2 °F 23.0 °F 78% 30.06 in 10.0 mi South 3.5 mph - N/A   Clear
2:54 AM 41.0 °F 34.7 °F 33.1 °F 73% 30.03 in 10.0 mi SW 10.4 mph - N/A   Clear
3:54 AM 42.1 °F 36.1 °F 32.0 °F 67% 30.00 in 10.0 mi WSW 10.4 mph - N/A   Clear
4:54 AM 43.0 °F 37.2 °F 32.0 °F 65% 29.99 in 10.0 mi West 10.4 mph - N/A   Clear
5:54 AM 43.0 °F 38.2 °F 32.0 °F 65% 29.99 in 10.0 mi West 8.1 mph - N/A   Clear
6:54 AM 42.1 °F 35.2 °F 32.0 °F 67% 30.00 in 10.0 mi West 12.7 mph - N/A   Clear
7:54 AM 42.1 °F 35.7 °F 32.0 °F 67% 30.04 in 8.0 mi WNW 11.5 mph - N/A   Mostly Cloudy
8:54 AM 39.9 °F 30.8 °F 26.1 °F 58% 30.11 in 10.0 mi North 18.4 mph - N/A   Mostly Cloudy
9:54 AM 39.0 °F 29.6 °F 21.9 °F 50% 30.17 in 10.0 mi North 18.4 mph - N/A   Mostly Cloudy
10:54 AM 42.1 °F 33.6 °F 18.0 °F 38% 30.21 in 10.0 mi North 18.4 mph 31.1 mph N/A   Mostly Cloudy
11:54 AM 39.0 °F 29.9 °F 17.1 °F 41% 30.23 in 10.0 mi North 17.3 mph 31.1 mph N/A   Mostly Cloudy
12:54 PM 39.0 °F 29.3 °F 16.0 °F 39% 30.24 in 10.0 mi North 19.6 mph 29.9 mph N/A   Mostly Cloudy
1:54 PM 37.0 °F 25.6 °F 12.9 °F 37% 30.27 in 10.0 mi North 24.2 mph 33.4 mph N/A   Mostly Cloudy
2:54 PM 36.0 °F 23.9 °F 10.0 °F 34% 30.33 in 10.0 mi North 25.3 mph 35.7 mph N/A   Mostly Cloudy
3:54 PM 35.1 °F 23.0 °F 5.0 °F 28% 30.37 in 10.0 mi North 24.2 mph 33.4 mph N/A   Scattered Clouds
4:54 PM 32.0 °F 20.5 °F 3.9 °F 31% 30.41 in 10.0 mi North 18.4 mph 29.9 mph N/A   Clear
5:54 PM 32.9 °F 21.6 °F 4.1 °F 30% 30.47 in 10.0 mi North 18.4 mph 27.6 mph N/A   Mostly Cloudy
6:54 PM 28.9 °F 18.6 °F 3.9 °F 35% 30.50 in 10.0 mi NNE 12.7 mph - N/A   Clear
7:54 PM 28.0 °F 16.5 °F 3.9 °F 36% 30.51 in 10.0 mi NNE 15.0 mph - N/A   Mostly Cloudy
8:54 PM 28.0 °F 19.3 °F 5.0 °F 38% 30.52 in 10.0 mi NNE 9.2 mph - N/A   Mostly Cloudy
9:54 PM 27.0 °F 16.1 °F 6.1 °F 41% 30.52 in 10.0 mi NNE 12.7 mph - N/A   Mostly Cloudy
10:54 PM 27.0 °F 16.1 °F 7.0 °F 43% 30.51 in 10.0 mi NNE 12.7 mph - N/A   Clear
11:54 PM 27.0 °F 16.7 °F 7.0 °F 43% 30.51 in 10.0 mi NNE 11.5 mph - N/A   Partly Cloudy